H1 CPF 2 NER 2020 12 5 9 340 01 glonass122 H2 1004103 9122 37139 2020 12 5 0 0 0 2020 12 8 23 45 0 900 1 1 0 0 0 1 H9 10 0 59188 0.00000 0 -12210338.285 8810331.383 -20571171.784 10 0 59188 900.00000 0 -14646197.236 8705140.927 -18950036.924 10 0 59188 1800.00000 0 -16861827.819 8773328.802 -16959783.887 10 0 59188 2700.00000 0 -18802606.096 8981125.852 -14638807.255 10 0 59188 3600.00000 0 -20423038.991 9286064.521 -12032067.178 10 0 59188 4500.00000 0 -21688508.106 9638938.578 -9190226.625 10 0 59188 5400.00000 0 -22576571.994 9986070.420 -6168665.423 10 0 59188 6300.00000 0 -23077768.979 10271789.246 -3026390.186 10 0 59188 7200.00000 0 -23195884.022 10441012.963 175137.494 10 0 59188 8100.00000 0 -22947666.533 10441821.240 3373229.738 10 0 59188 9000.00000 0 -22362010.196 10227906.674 6505231.153 10 0 59188 9900.00000 0 -21478629.879 9760796.015 9509779.640 10 0 59188 10800.00000 0 -20346293.161 9011743.245 12328041.056 10 0 59188 11700.00000 0 -19020683.891 7963210.901 14904890.155 10 0 59188 12600.00000 0 -17561991.384 6609874.478 17190011.676 10 0 59188 13500.00000 0 -16032330.703 4959106.058 19138897.809 10 0 59188 14400.00000 0 -14493106.268 3030916.538 20713721.243 10 0 59188 15300.00000 0 -13002432.728 857359.781 21884066.314 10 0 59188 16200.00000 0 -11612723.454 -1518574.587 22627504.690 10 0 59188 17100.00000 0 -10368548.611 -4044531.139 22930005.916 10 0 59188 18000.00000 0 -9304852.012 -6660753.220 22786177.038 10 0 59188 18900.00000 0 -8445599.546 -9302357.970 22199329.460 10 0 59188 19800.00000 0 -7802912.709 -11901825.403 21181374.731 10 0 59188 20700.00000 0 -7376719.725 -14391597.012 19752554.357 10 0 59188 21600.00000 0 -7154934.585 -16706676.105 17941011.717 10 0 59188 22500.00000 0 -7114152.278 -18787122.977 15782216.837 10 0 59188 23400.00000 0 -7220827.269 -20580343.308 13318257.107 10 0 59188 24300.00000 0 -7432882.695 -22043077.731 10597009.023 10 0 59188 25200.00000 0 -7701680.679 -23143013.294 7671207.554 10 0 59188 26100.00000 0 -7974269.996 -23859953.373 4597431.203 10 0 59188 27000.00000 0 -8195816.752 -24186500.910 1435021.659 10 0 59188 27900.00000 0 -8312116.840 -24128229.519 -1755042.389 10 0 59188 28800.00000 0 -8272086.360 -23703337.784 -4911297.105 10 0 59188 29700.00000 0 -8030127.365 -22941802.548 -7972950.987 10 0 59188 30600.00000 0 -7548271.684 -21884066.931 -10881028.011 10 0 59188 31500.00000 0 -6798014.639 -20579317.218 -13579476.739 10 0 59188 32400.00000 0 -5761762.789 -19083418.902 -16016226.567 10 0 59188 33300.00000 0 -4433835.245 -17456595.774 -18144172.941 10 0 59188 34200.00000 0 -2820975.794 -15760946.204 -19922074.365 10 0 59188 35100.00000 0 -942352.357 -14057897.374 -21315345.357 10 0 59188 36000.00000 0 1170959.263 -12405701.018 -22296730.758 10 0 59188 36900.00000 0 3476989.769 -10857073.101 -22846848.386 10 0 59188 37800.00000 0 5924351.076 -9457074.569 -22954588.787 10 0 59188 38700.00000 0 8454114.703 -8241321.274 -22617362.795 10 0 59188 39600.00000 0 11002019.970 -7234598.540 -21841189.810 10 0 59188 40500.00000 0 13500923.911 -6449939.827 -20640622.249 10 0 59188 41400.00000 0 15883393.713 -5888210.376 -19038504.346 10 0 59188 42300.00000 0 18084335.060 -5538216.077 -17065566.650 10 0 59188 43200.00000 0 20043546.990 -5377335.773 -14759860.837 10 0 59188 44100.00000 0 21708095.424 -5372652.889 -12166043.040 10 0 59188 45000.00000 0 23034403.735 -5482540.524 -9334517.598 10 0 59188 45900.00000 0 23989969.813 -5658633.866 -6320456.734 10 0 59188 46800.00000 0 24554634.186 -5848106.109 -3182715.125 10 0 59188 47700.00000 0 24721342.633 -5996149.954 17338.420 10 0 59188 48600.00000 0 24496368.587 -6048556.728 3217047.433 10 0 59188 49500.00000 0 23898984.260 -5954280.168 6353725.701 10 0 59188 50400.00000 0 22960593.901 -5667872.016 9365918.613 10 0 59188 51300.00000 0 21723366.548 -5151681.965 12194639.752 10 0 59188 52200.00000 0 20238427.950 -4377724.889 14784555.136 10 0 59188 53100.00000 0 18563690.847 -3329133.272 17085088.829 10 0 59188 54000.00000 0 16761418.514 -2001131.348 19051426.070 10 0 59188 54900.00000 0 14895627.688 -401488.946 20645392.922 10 0 59188 55800.00000 0 13029443.308 1449563.798 21836194.775 10 0 59188 56700.00000 0 11222518.561 3519956.033 22600999.966 10 0 59188 57600.00000 0 9528629.696 5766902.121 22925358.602 10 0 59188 58500.00000 0 7993546.364 8138484.352 22803450.638 10 0 59188 59400.00000 0 6653265.254 10575623.884 22238161.184 10 0 59188 60300.00000 0 5532678.221 13014355.699 21240984.565 10 0 59188 61200.00000 0 4644727.044 15388311.288 19831762.078 10 0 59188 62100.00000 0 3990075.836 17631305.207 18038261.402 10 0 59188 63000.00000 0 3557310.301 19679918.345 15895608.256 10 0 59188 63900.00000 0 3323651.142 21475971.873 13445583.362 10 0 59188 64800.00000 0 3256147.936 22968791.296 10735799.628 10 0 59188 65700.00000 0 3313300.484 24117169.308 7818776.127 10 0 59188 66600.00000 0 3447037.730 24890949.117 4750926.873 10 0 59188 67500.00000 0 3604970.378 25272165.554 1591483.235 10 0 59188 68400.00000 0 3732822.836 25255699.556 -1598630.417 10 0 59188 69300.00000 0 3776943.484 24849421.282 -4757947.740 10 0 59188 70200.00000 0 3686789.546 24073817.568 -7825618.029 10 0 59188 71100.00000 0 3417284.247 22961119.998 -10742550.468 10 0 59188 72000.00000 0 2930949.219 21553969.560 -13452525.344 10 0 59188 72900.00000 0 2199724.193 19903672.325 -15903253.285 10 0 59188 73800.00000 0 1206398.423 18068116.656 -18047364.379 10 0 59188 74700.00000 0 -54406.314 16109436.096 -19843309.911 10 0 59188 75600.00000 0 -1575743.627 14091512.208 -21256160.800 10 0 59188 76500.00000 0 -3338364.400 12077418.393 -22258288.081 10 0 59188 77400.00000 0 -5311255.136 10126908.553 -22829912.323 10 0 59188 78300.00000 0 -7452674.539 8294053.195 -22959510.632 10 0 59188 79200.00000 0 -9711649.753 6625120.366 -22644071.884 10 0 59188 80100.00000 0 -12029874.422 5156789.677 -21889192.924 10 0 59188 81000.00000 0 -14343933.701 3914774.829 -20709011.139 10 0 59188 81900.00000 0 -16587766.826 2912913.855 -19125971.376 10 0 59188 82800.00000 0 -18695266.643 2152767.592 -17170428.437 10 0 59188 83700.00000 0 -20602908.474 1623745.753 -14880089.610 10 0 59188 84600.00000 0 -22252297.905 1303757.874 -12299305.199 10 0 59188 85500.00000 0 -23592528.967 1160363.774 -9478218.849 10 0 59189 0.00000 0 -24582251.128 1152376.241 -6471792.987 10 0 59189 900.00000 0 -25191354.567 1231848.262 -3338727.808 10 0 59189 1800.00000 0 -25402200.224 1346360.002 -140296.870 10 0 59189 2700.00000 0 -25210337.857 1441505.833 3060877.408 10 0 59189 3600.00000 0 -24624681.356 1463473.345 6202080.718 10 0 59189 4500.00000 0 -23667131.059 1361600.657 9221768.723 10 0 59189 5400.00000 0 -22371659.567 1090799.495 12060805.548 10 0 59189 6300.00000 0 -20782900.526 613737.231 14663651.236 10 0 59189 7200.00000 0 -18954302.156 -97318.023 16979471.826 10 0 59189 8100.00000 0 -16945926.330 -1059069.947 18963148.046 10 0 59189 9000.00000 0 -14821989.132 -2276245.975 20576161.472 10 0 59189 9900.00000 0 -12648249.589 -3741168.952 21787340.335 10 0 59189 10800.00000 0 -10489358.844 -5433865.762 22573451.019 10 0 59189 11700.00000 0 -8406282.610 -7322706.682 22919625.143 10 0 59189 12600.00000 0 -6453905.425 -9365546.352 22819616.119 10 0 59189 13500.00000 0 -4678916.089 -11511316.108 22275882.921 10 0 59189 14400.00000 0 -3118060.512 -13701998.769 21299502.453 10 0 59189 15300.00000 0 -1796831.784 -15874901.504 19909915.280 10 0 59189 16200.00000 0 -728648.063 -17965130.835 18134512.545 10 0 59189 17100.00000 0 85452.010 -19908166.424 16008074.569 10 0 59189 18000.00000 0 656588.199 -21642427.063 13572074.044 10 0 59189 18900.00000 0 1007305.499 -23111723.580 10873858.663 10 0 59189 19800.00000 0 1170363.296 -24267499.073 7965729.760 10 0 59189 20700.00000 0 1187100.184 -25070765.812 4903934.828 10 0 59189 21600.00000 0 1105444.703 -25493661.120 1747592.718 10 0 59189 22500.00000 0 977655.980 -25520560.604 -1442428.855 10 0 59189 23400.00000 0 857888.597 -25148704.662 -4604663.490 10 0 59189 24300.00000 0 799682.618 -24388314.176 -7678203.858 10 0 59189 25200.00000 0 853482.339 -23262191.499 -10603847.037 10 0 59189 26100.00000 0 1064285.899 -21804823.321 -13325207.782 10 0 59189 27000.00000 0 1469522.595 -20061021.785 -15789780.727 10 0 59189 27900.00000 0 2097245.643 -18084158.464 -17949933.319 10 0 59189 28800.00000 0 2964715.680 -15934062.101 -19763812.204 10 0 59189 29700.00000 0 4077434.899 -13674664.427 -21196147.056 10 0 59189 30600.00000 0 5428673.985 -11371488.677 -22218937.155 10 0 59189 31500.00000 0 6999514.355 -9089082.213 -22812007.504 10 0 59189 32400.00000 0 8759407.692 -6888497.434 -22963423.066 10 0 59189 33300.00000 0 10667233.743 -4824923.911 -22669751.632 10 0 59189 34200.00000 0 12672816.768 -2945569.541 -21936167.989 10 0 59189 35100.00000 0 14718841.773 -1287879.095 -20776394.583 10 0 59189 36000.00000 0 16743094.336 121834.401 -19212476.588 10 0 59189 36900.00000 0 18680933.205 1269286.339 -17274392.378 10 0 59189 37800.00000 0 20467893.885 2152605.372 -14999503.737 10 0 59189 38700.00000 0 22042314.378 2782187.792 -12431853.599 10 0 59189 39600.00000 0 23347871.770 3180025.271 -9621322.894 10 0 59189 40500.00000 0 24335920.803 3378532.692 -6622661.653 10 0 59189 41400.00000 0 24967532.881 3418924.902 -3494412.987 10 0 59189 42300.00000 0 25215145.933 3349211.405 -297751.891 10 0 59189 43200.00000 0 25063752.015 3221895.590 2904736.657 10 0 59189 44100.00000 0 24511569.369 3091478.729 6050313.730 10 0 59189 45000.00000 0 23570168.362 3011878.152 9077348.694 10 0 59189 45900.00000 0 22264044.925 3033873.198 11926559.495 10 0 59189 46800.00000 0 20629659.643 3202691.380 14542203.254 10 0 59189 47700.00000 0 18713984.474 3555840.833 16873190.736 10 0 59189 48600.00000 0 16572620.660 4121283.853 18874100.584 10 0 59189 49500.00000 0 14267569.985 4916030.788 20506071.972 10 0 59189 50400.00000 0 11864756.236 5945214.470 21737557.696 10 0 59189 51300.00000 0 9431403.697 7201683.882 22544923.527 10 0 59189 52200.00000 0 7033384.618 8666132.820 22912883.552 10 0 59189 53100.00000 0 4732647.829 10307756.000 22834765.163 10 0 59189 54000.00000 0 2584835.750 12085402.516 22312601.285 10 0 59189 54900.00000 0 637187.810 13949175.749 21357051.032 10 0 59189 55800.00000 0 -1073184.867 15842410.417 19987153.422 10 0 59189 56700.00000 0 -2520585.288 17703942.399 18229921.834 10 0 59189 57600.00000 0 -3691527.720 19470575.666 16119789.575 10 0 59189 58500.00000 0 -4585017.504 21079643.260 13697919.360 10 0 59189 59400.00000 0 -5212306.551 22471556.470 11011391.494 10 0 59189 60300.00000 0 -5596138.964 23592237.620 8112287.168 10 0 59189 61200.00000 0 -5769521.611 24395337.315 5056684.748 10 0 59189 62100.00000 0 -5774073.604 24844146.466 1903587.870 10 0 59189 63000.00000 0 -5658025.078 24913126.038 -1286195.208 10 0 59189 63900.00000 0 -5473949.360 24588993.255 -4451200.881 10 0 59189 64800.00000 0 -5276322.925 23871321.139 -7530468.001 10 0 59189 65700.00000 0 -5119013.969 22772627.429 -10464684.280 10 0 59189 66600.00000 0 -5052803.041 21317949.503 -13197301.547 10 0 59189 67500.00000 0 -5123037.747 19543922.258 -15675600.854 10 0 59189 68400.00000 0 -5367518.205 17497395.552 -17851689.198 10 0 59189 69300.00000 0 -5814700.791 15233646.215 -19683410.541 10 0 59189 70200.00000 0 -6482295.250 12814255.770 -21135155.023 10 0 59189 71100.00000 0 -7376314.819 10304738.535 -22178551.619 10 0 59189 72000.00000 0 -8490621.061 7772015.236 -22793030.939 10 0 59189 72900.00000 0 -9806985.484 5281833.939 -22966246.665 10 0 59189 73800.00000 0 -11295669.205 2896242.937 -22694346.024 10 0 59189 74700.00000 0 -12916500.712 671219.190 -21982081.850 10 0 59189 75600.00000 0 -14620411.089 -1345449.644 -20842761.334 10 0 59189 76500.00000 0 -16351366.578 -3115940.871 -19298029.199 10 0 59189 77400.00000 0 -18048620.860 -4613754.587 -17377486.179 10 0 59189 78300.00000 0 -19649194.969 -5824594.874 -15118146.936 10 0 59189 79200.00000 0 -21090481.703 -6746735.025 -12563745.065 10 0 59189 80100.00000 0 -22312864.663 -7390849.027 -9763896.550 10 0 59189 81000.00000 0 -23262239.958 -7779314.440 -6773136.653 10 0 59189 81900.00000 0 -23892331.523 -7945014.870 -3649848.679 10 0 59189 82800.00000 0 -24166698.815 -7929692.389 -455106.412 10 0 59189 83700.00000 0 -24060348.327 -7781920.643 2748545.407 10 0 59189 84600.00000 0 -23560877.254 -7554786.644 5898346.090 10 0 59189 85500.00000 0 -22669098.034 -7303382.612 8932581.599 10 0 59190 0.00000 0 -21399115.528 -7082218.009 11791826.514 10 0 59190 900.00000 0 -19777852.455 -6942665.951 14420137.903 10 0 59190 1800.00000 0 -17844044.631 -6930555.082 16766173.827 10 0 59190 2700.00000 0 -15646748.529 -7084014.148 18784213.162 10 0 59190 3600.00000 0 -13243427.710 -7431660.915 20435054.676 10 0 59190 4500.00000 0 -10697700.713 -7991214.664 21686777.312 10 0 59190 5400.00000 0 -8076848.008 -8768590.336 22515347.377 10 0 59190 6300.00000 0 -5449184.738 -9757511.632 22905062.128 10 0 59190 7200.00000 0 -2881410.808 -10939657.387 22848823.229 10 0 59190 8100.00000 0 -436049.419 -12285332.449 22348237.461 10 0 59190 9000.00000 0 1830919.907 -13754632.114 21413545.723 10 0 59190 9900.00000 0 3872137.061 -15299048.488 20063384.771 10 0 59190 10800.00000 0 5650562.567 -16863449.250 18324389.239 10 0 59190 11700.00000 0 7140737.447 -18388344.370 16230644.192 10 0 59190 12600.00000 0 8329553.656 -19812345.233 13823000.897 10 0 59190 13500.00000 0 9216507.789 -21074713.610 11148270.528 10 0 59190 14400.00000 0 9813431.922 -22117895.077 8258312.164 10 0 59190 15300.00000 0 10143716.646 -22889932.819 5209032.887 10 0 59190 16200.00000 0 10241061.825 -23346663.367 2059318.740 10 0 59190 17100.00000 0 10147809.319 -23453605.074 -1130083.986 10 0 59190 18000.00000 0 9912928.318 -23187463.023 -4297717.074 10 0 59190 18900.00000 0 9589737.553 -22537189.641 -7382568.232 10 0 59190 19800.00000 0 9233458.704 -21504558.161 -10325218.503 10 0 59190 20700.00000 0 8898701.854 -20104225.625 -13068959.448 10 0 59190 21600.00000 0 8636986.335 -18363282.249 -15560861.135 10 0 59190 22500.00000 0 8494398.916 -16320304.455 -17752772.600 10 0 59190 23400.00000 0 8509485.832 -14023948.611 -19602237.416 10 0 59190 24300.00000 0 8711466.084 -11531140.754 -21073308.224 10 0 59190 25200.00000 0 9118840.857 -8904933.848 -22137245.403 10 0 59190 26100.00000 0 9738458.394 -6212117.807 -22773086.505 10 0 59190 27000.00000 0 10565075.618 -3520677.899 -22968074.859 10 0 59190 27900.00000 0 11581438.021 -897203.904 -22717937.637 10 0 59190 28800.00000 0 12758878.269 1595644.526 -22027005.845 10 0 59190 29700.00000 0 14058412.638 3901512.276 -20908171.156 10 0 59190 30600.00000 0 15432293.488 5972464.360 -19382677.228 10 0 59190 31500.00000 0 16825956.275 7770753.553 -17479746.188 10 0 59190 32400.00000 0 18180282.149 9270164.646 -15236044.268 10 0 59190 33300.00000 0 19434082.639 10456876.762 -12694994.057 10 0 59190 34200.00000 0 20526702.070 11329805.043 -9905944.574 10 0 59190 35100.00000 0 21400626.966 11900405.074 -6923213.941 10 0 59190 36000.00000 0 22003989.949 12191946.577 -3805022.983 10 0 59190 36900.00000 0 22292859.139 12238286.155 -612341.362 10 0 59190 37800.00000 0 22233212.437 12082191.304 2592329.477 10 0 59190 38700.00000 0 21802509.337 11773288.083 5746210.190 10 0 59190 39600.00000 0 20990790.284 11365721.951 8787506.387 10 0 59190 40500.00000 0 19801254.432 10915634.330 11656652.308 10 0 59190 41400.00000 0 18250289.751 10478565.787 14297507.488 10 0 59190 42300.00000 0 16366953.880 10106899.841 16658479.827 10 0 59190 43200.00000 0 14191928.425 9847459.277 18693550.675 10 0 59190 44100.00000 0 11775992.506 9739359.530 20363180.309 10 0 59190 45000.00000 0 9178082.237 9812211.651 21635075.446 10 0 59190 45900.00000 0 6463020.274 10084751.311 22484804.235 10 0 59190 46800.00000 0 3699013.055 10563951.000 22896248.057 10 0 59190 47700.00000 0 955022.391 11244651.072 22861883.407 10 0 59190 48600.00000 0 -1701877.797 12109722.595 22382891.068 10 0 59190 49500.00000 0 -4209049.543 13130752.151 21469093.423 10 0 59190 50400.00000 0 -6510638.726 14269216.644 20138724.208 10 0 59190 51300.00000 0 -8559627.604 15478096.024 18418038.126 10 0 59190 52200.00000 0 -10319509.975 16703853.967 16340770.403 10 0 59190 53100.00000 0 -11765523.391 17888702.077 13947458.932 10 0 59190 54000.00000 0 -12885391.723 18973052.238 11284643.587 10 0 59190 54900.00000 0 -13679551.588 19898054.812 8403958.961 10 0 59190 55800.00000 0 -14160857.439 20608117.764 5361138.343 10 0 59190 56700.00000 0 -14353780.996 21053303.097 2214947.590 10 0 59190 57600.00000 0 -14293141.043 21191502.674 -973931.633 10 0 59190 58500.00000 0 -14022418.201 20990304.841 -4144049.210 10 0 59190 59400.00000 0 -13591725.559 20428476.006 -7234344.414 10 0 59190 60300.00000 0 -13055519.477 19496996.907 -10185294.269 10 0 59190 61200.00000 0 -12470144.976 18199611.120 -12940032.653 10 0 59190 62100.00000 0 -11891316.535 16552862.844 -15445421.083 10 0 59190 63000.00000 0 -11371637.650 14585621.184 -17653052.877 10 0 59190 63900.00000 0 -10958260.985 12338108.635 -19520173.222 10 0 59190 64800.00000 0 -10690785.580 9860471.087 -21010498.993 10 0 59190 65700.00000 0 -10599478.366 7210945.097 -22094923.416 10 0 59190 66600.00000 0 -10703894.653 4453694.534 -22752092.113 10 0 59190 67500.00000 0 -11011956.622 1656402.424 -22968838.841 10 0 59190 68400.00000 0 -11519530.689 -1112285.761 -22740471.136 10 0 59190 69300.00000 0 -12210524.585 -3785364.046 -22070898.180 10 0 59190 70200.00000 0 -13057503.799 -6300007.057 -20972595.714 10 0 59190 71100.00000 0 -14022805.464 -8599945.528 -19466405.482 10 0 59190 72000.00000 0 -15060106.621 -10637576.921 -17581169.734 10 0 59190 72900.00000 0 -16116384.028 -12375721.905 -15353204.621 10 0 59190 73800.00000 0 -17134185.171 -13788951.200 -12825619.756 10 0 59190 74700.00000 0 -18054115.617 -14864424.656 -10047494.959 10 0 59190 75600.00000 0 -18817437.299 -15602204.780 -7072928.805 10 0 59190 76500.00000 0 -19368666.177 -16015029.363 -3959977.090 10 0 59190 77400.00000 0 -19658056.543 -16127551.266 -769502.713 10 0 59190 78300.00000 0 -19643863.175 -15975077.063 2436038.894 10 0 59190 79200.00000 0 -19294281.576 -15601858.621 5593852.496 10 0 59190 80100.00000 0 -18588980.299 -15059011.805 8642066.145 10 0 59190 81000.00000 0 -17520157.217 -14402153.397 11520976.458 10 0 59190 81900.00000 0 -16093072.673 -13688859.922 14174248.226 10 0 59190 82800.00000 0 -14326035.810 -12976059.930 16550041.690 10 0 59190 83700.00000 0 -12249844.633 -12317473.869 18602042.946 10 0 59190 84600.00000 0 -9906704.481 -11761213.019 20290375.765 10 0 59190 85500.00000 0 -7348672.368 -11347641.182 21582376.225 10 0 59191 0.00000 0 -4635695.000 -11107590.404 22453215.481 10 0 59191 900.00000 0 -1833324.940 -11061006.057 22886359.805 10 0 59191 1800.00000 0 989786.851 -11216075.950 22873860.870 10 0 59191 2700.00000 0 3764516.240 -11568879.373 22416473.412 10 0 59191 3600.00000 0 6423899.001 -12103565.862 21523600.932 10 0 59191 4500.00000 0 8905662.271 -12793053.970 20213073.480 10 0 59191 5400.00000 0 11154551.018 -13600216.745 18510764.877 10 0 59191 6300.00000 0 13124355.494 -14479501.358 16450059.315 10 0 59191 7200.00000 0 14779558.900 -15378912.624 14071179.850 10 0 59191 8100.00000 0 16096540.879 -16242275.836 11420393.275 10 0 59191 9000.00000 0 17064291.313 -17011683.739 8549107.640 10 0 59191 9900.00000 0 17684608.733 -17630025.582 5512880.095 10 0 59191 10800.00000 0 17971778.819 -18043493.564 2370353.700 10 0 59191 11700.00000 0 17951749.507 -18203963.704 -817857.308 10 0 59191 12600.00000 0 17660838.958 -18071153.541 -3990313.804 10 0 59191 13500.00000 0 17144031.418 -17614468.578 -7085909.578 10 0 59191 14400.00000 0 16452932.055 -16814462.109 -10045020.555 10 0 59191 15300.00000 0 15643465.140 -15663848.460 -12810625.742 10 0 59191 16200.00000 0 14773410.095 -14168027.667 -15329380.766 10 0 59191 17100.00000 0 13899876.261 -12345098.867 -17552625.670 10 0 59191 18000.00000 0 13076819.706 -10225360.104 -19437309.452 10 0 59191 18900.00000 0 12352703.933 -7850312.533 -20946815.108 10 0 59191 19800.00000 0 11768400.860 -5271206.807 -22051670.241 10 0 59191 20700.00000 0 11355419.260 -2547188.005 -22730129.665 10 0 59191 21600.00000 0 11134535.138 256888.197 -22968618.264 10 0 59191 22500.00000 0 11114882.773 3072881.562 -22762024.193 10 0 59191 23400.00000 0 11293546.828 5831938.276 -22113834.645 10 0 59191 24300.00000 0 11655675.712 8467102.780 -21036108.858 10 0 59191 25200.00000 0 12175114.962 10915863.462 -19549285.707 10 0 59191 26100.00000 0 12815537.622 13122526.554 -17681826.265 10 0 59191 27000.00000 0 13532027.260 15040318.509 -15469694.971 10 0 59191 27900.00000 0 14273049.468 16633127.307 -12955686.506 10 0 59191 28800.00000 0 14982730.033 17876807.293 -10188609.235 10 0 59191 29700.00000 0 15603343.731 18759990.103 -7222339.638 10 0 59191 30600.00000 0 16077907.292 19284364.994 -4114765.694 10 0 59191 31500.00000 0 16352764.399 19464414.645 -926640.578 10 0 59191 32400.00000 0 16380049.846 19326616.435 2279629.347 10 0 59191 33300.00000 0 16119924.537 18908142.870 5441236.010 10 0 59191 34200.00000 0 15542482.517 18255117.265 8496232.860 10 0 59191 35100.00000 0 14629245.550 17420500.764 11384781.676 10 0 59191 36000.00000 0 13374178.923 16461703.314 14050355.060 10 0 59191 36900.00000 0 11784183.577 15438023.358 16440867.869 10 0 59191 37800.00000 0 9879042.951 14408028.365 18509712.946 10 0 59191 38700.00000 0 7690827.123 13426990.302 20216679.234 10 0 59191 39600.00000 0 5262780.716 12544487.009 21528733.560 10 0 59191 40500.00000 0 2647743.350 11802272.228 22420651.150 10 0 59191 41400.00000 0 -93828.766 11232504.287 22875483.829 10 0 59191 42300.00000 0 -2896154.905 10856407.034 22884858.757 10 0 59191 43200.00000 0 -5690637.956 10683417.131 22449104.549 10 0 59191 44100.00000 0 -8408482.907 10710850.447 21577205.281 10 0 59191 45000.00000 0 -10983316.417 10924097.912 20286586.339 10 0 59191 45900.00000 0 -13353699.450 11297338.759 18602739.252 10 0 59191 46800.00000 0 -15465430.527 11794737.602 16558695.372 10 0 59191 47700.00000 0 -17273546.752 12372072.081 14194360.773 10 0 59191 48600.00000 0 -18743943.060 12978720.529 11555726.806 10 0 59191 49500.00000 0 -19854546.507 13559925.044 8693972.439 10 0 59191 50400.00000 0 -20596000.730 14059234.786 5664476.038 10 0 59191 51300.00000 0 -20971835.957 14421027.716 2525755.225 10 0 59191 52200.00000 0 -20998120.646 14593006.422 -661645.828 10 0 59191 53100.00000 0 -20702611.609 14528565.305 -3836301.637 10 0 59191 54000.00000 0 -20123439.624 14188932.131 -6937063.075 10 0 59191 54900.00000 0 -19307385.557 13544996.080 -9904207.494 10 0 59191 55800.00000 0 -18307818.372 12578747.339 -12680561.475 10 0 59191 56700.00000 0 -17182379.569 11284268.668 -15212577.062 10 0 59191 57600.00000 0 -15990508.634 9668237.254 -17451343.135 10 0 59191 58500.00000 0 -14790910.437 7749914.537 -19353514.354 10 0 59191 59400.00000 0 -13639067.977 5560622.066 -20882141.385 10 0 59191 60300.00000 0 -12584902.300 3142721.758 -22007387.400 10 0 59191 61200.00000 0 -11670676.049 548139.012 -22707117.228 10 0 59191 62100.00000 0 -10929227.705 -2163514.399 -22967347.309 10 0 59191 63000.00000 0 -10382610.889 -4927144.165 -22782546.437 10 0 59191 63900.00000 0 -10041197.149 -7674616.394 -22155779.430 10 0 59191 64800.00000 0 -9903282.163 -10337341.540 -21098688.225 10 0 59191 65700.00000 0 -9955214.847 -12848894.134 -19631307.653 10 0 59191 66600.00000 0 -10172047.217 -15147560.250 -17781716.076 10 0 59191 67500.00000 0 -10518680.855 -17178706.365 -15585524.374 10 0 59191 68400.00000 0 -10951464.307 -18896869.354 -13085210.215 10 0 59191 69300.00000 0 -11420175.861 -20267477.856 -10329308.253 10 0 59191 70200.00000 0 -11870308.576 -21268130.085 -7371470.515 10 0 59191 71100.00000 0 -12245560.283 -21889371.454 -4269414.754 10 0 59191 72000.00000 0 -12490421.230 -22134936.618 -1083781.979 10 0 59191 72900.00000 0 -12552746.753 -22021443.849 2123072.950 10 0 59191 73800.00000 0 -12386202.124 -21577553.761 5288331.579 10 0 59191 74700.00000 0 -11952471.805 -20842628.209 8349975.201 10 0 59191 75600.00000 0 -11223135.425 -19864947.645 11248033.180 10 0 59191 76500.00000 0 -10181127.468 -18699564.850 13925788.301 10 0 59191 77400.00000 0 -8821716.264 -17405889.163 16330912.291 10 0 59191 78300.00000 0 -7152959.383 -16045106.948 18416506.806 10 0 59191 79200.00000 0 -5195615.772 -14677550.787 20142027.779 10 0 59191 80100.00000 0 -2982519.155 -13360131.374 21474074.278 10 0 59191 81000.00000 0 -557440.610 -12143942.387 22387026.737 10 0 59191 81900.00000 0 2026509.811 -11072139.951 22863523.314 10 0 59191 82800.00000 0 4708873.033 -10178185.436 22894767.053 10 0 59191 83700.00000 0 7424137.196 -9484523.586 22480660.480 10 0 59191 84600.00000 0 10104242.765 -9001748.613 21629767.959 10 0 59191 85500.00000 0 12681191.239 -8728289.576 20359109.633 99